User: anonymous   Login
Location: Mentone
(34.5413°N, 85.5351°W)
Time: 03:00:57
(UTC-06:00)
Language:

Uosat F - Orbit

View from above orbital plane
View from above orbital plane
View from above satellite
View from above satellite

Ground track
Ground track

The orbit data is extracted from the following two-line orbital elements,

1 21575U 91050B   17055.64768807  .00000046  00000-0  28843-4 0  9998
2 21575  98.7622  69.3391 0006213 276.1629  83.8851 14.40784748345071
Epoch (UTC): 24 February 2017 15:32:40
Eccentricity: 0.0006213
inclination: 98.7622°
perigee height: 751 km
apogee height: 760 km
right ascension of ascending node: 69.3391°
argument of perigee: 276.1629°
revolutions per day: 14.40784748
mean anomaly at epoch: 83.8851°
orbit number at epoch: 34507

The dashed part of the orbit path shows where the satellite is in the earth's shadow,  

DLR